This demonstration page uses our WeatherBlox Daily Observations layout. Learn more.

Left ArrowRight Arrow

36.19886, -115.1175

Hourly Observations for November 6, 2015

Temp ( °F °C ) Dew Point ( °F °C ) Humidity (%) Winds ( mph kmh ) Pressure ( in mb ) Visibility ( mi km ) Precip ( " mm )
12:53 am 00:53 Clear 48 8.9 26 -3.3 42 42 NNW 9 15 30.27 1025 10 16 0.00 0.00
1:53 am 01:53 Clear 47 8.3 25 -3.9 42 42 N 9 15 30.27 1025 10 16 0.00 0.00
2:53 am 02:53 Clear 46 7.8 26 -3.3 46 46 N 7 11 30.27 1025 10 16 0.00 0.00
3:53 am 03:53 Clear 44 6.7 27 -2.8 51 51 NW 8 13 30.29 1026 10 16 0.00 0.00
4:53 am 04:53 Clear 46 7.8 27 -2.8 47 47 NNW 9 15 30.29 1026 10 16 0.00 0.00
5:53 am 05:53 Clear 46 7.8 27 -2.8 47 47 NNW 12 19 30.30 1026 10 16 0.00 0.00
6:53 am 06:53 Sunny 47 8.3 25 -3.9 42 42 NNW 14 22 30.32 1027 10 16 0.00 0.00
7:53 am 07:53 Sunny 51 10.6 25 -3.9 36 36 NE 10 17 30.34 1028 10 16 0.00 0.00
8:53 am 08:53 Sunny 56 13.3 22 -5.6 27 27 N 16 26 30.34 1027 10 16 0.00 0.00
9:53 am 09:53 Sunny 58 14.4 21 -6.1 24 24 N 21 33 30.33 1027 10 16 0.00 0.00
10:53 am 10:53 Sunny 60 15.6 21 -6.1 22 22 N 14 22 30.32 1027 10 16 0.00 0.00
11:53 am 11:53 Sunny 62 16.7 21 -6.1 21 21 N 14 22 30.29 1026 10 16 0.00 0.00
12:53 pm 12:53 Sunny 63 17.2 21 -6.1 20 20 N 14 22 30.26 1025 10 16 0.00 0.00
1:53 pm 13:53 Sunny 64 17.8 20 -6.7 18 18 NNW 16 26 30.24 1024 10 16 0.00 0.00
2:53 pm 14:53 Sunny 64 17.8 19 -7.2 18 18 NNW 15 24 30.24 1024 10 16 0.00 0.00
3:53 pm 15:53 Sunny 64 17.8 19 -7.2 18 18 N 12 19 30.24 1024 10 16 0.00 0.00
4:53 pm 16:53 Clear 61 16.1 22 -5.6 22 22 N 5 7 30.24 1024 10 16 0.00 0.00
5:53 pm 17:53 Clear 60 15.6 20 -6.7 21 21 NNE 7 11 30.26 1025 10 16 0.00 0.00
6:53 pm 18:53 Clear 58 14.4 22 -5.6 25 25 ENE 7 11 30.28 1025 10 16 0.00 0.00
7:53 pm 19:53 Clear 56 13.3 24 -4.4 29 29 NNE 5 7 30.29 1026 10 16 0.00 0.00
8:53 pm 20:53 Clear 54 12.2 25 -3.9 33 33 NE 5 7 30.30 1026 10 16 0.00 0.00
9:53 pm 21:53 Clear 53 11.7 24 -4.4 32 32 N 7 11 30.30 1026 10 16 0.00 0.00
10:53 pm 22:53 Clear 53 11.7 23 -5 31 31 NNW 6 9 30.30 1026 10 16 0.00 0.00
11:53 pm 23:53 Clear 51 10.6 24 -4.4 35 35 Calm 30.31 1027 10 16 0.00 0.00

Powered by AerisWeather